TimeEET,TemperatureF,Dew PointF,Humidity,Sea Level PressureIn,VisibilityMPH,Wind Direction,Wind SpeedMPH,Gust SpeedMPH,PrecipitationIn,Events,Conditions,WindDirDegrees,DateUTC
12:20 AM,50.0,48.2,94,29.89,6.2,East,3.5,-,N/A,,Mostly Cloudy,90,2013-01-27 22:20:00
12:50 AM,50.0,48.2,94,29.92,6.2,ESE,2.3,-,N/A,,Mostly Cloudy,110,2013-01-27 22:50:00
1:20 AM,50.0,46.4,87,29.92,6.2,West,8.1,-,N/A,,Mostly Cloudy,270,2013-01-27 23:20:00
1:50 AM,50.0,46.4,87,29.92,6.2,West,4.6,-,N/A,,Mostly Cloudy,270,2013-01-27 23:50:00
2:00 AM,50,47,84,29.94,12,West,4.6,,,,Partly Cloudy,270,2013-01-28 00:00:00
2:20 AM,50.0,46.4,87,29.92,6.2,West,4.6,-,N/A,,Mostly Cloudy,280,2013-01-28 00:20:00
2:50 AM,50.0,46.4,87,29.95,6.2,West,6.9,-,N/A,,Mostly Cloudy,280,2013-01-28 00:50:00
3:20 AM,50.0,48.2,94,29.95,6.2,West,9.2,-,N/A,,Mostly Cloudy,270,2013-01-28 01:20:00
3:50 AM,48.2,46.4,93,29.95,6.2,West,9.2,-,N/A,,Mostly Cloudy,270,2013-01-28 01:50:00
4:20 AM,48.2,46.4,93,29.95,6.2,WNW,9.2,-,N/A,,Mostly Cloudy,290,2013-01-28 02:20:00
4:50 AM,48.2,48.2,100,29.95,6.2,WNW,9.2,-,N/A,,Mostly Cloudy,290,2013-01-28 02:50:00
5:20 AM,48.2,48.2,100,29.95,6.2,WNW,10.4,-,N/A,,Mostly Cloudy,290,2013-01-28 03:20:00
5:50 AM,48.2,46.4,93,29.98,6.2,WNW,6.9,-,N/A,,Mostly Cloudy,290,2013-01-28 03:50:00
6:20 AM,48.2,46.4,93,29.98,6.2,West,4.6,-,N/A,,Mostly Cloudy,280,2013-01-28 04:20:00
6:50 AM,48.2,46.4,93,29.98,6.2,Calm,Calm,-,N/A,,Mostly Cloudy,0,2013-01-28 04:50:00
7:20 AM,48.2,46.4,93,29.98,6.2,East,6.9,-,N/A,,Mostly Cloudy,100,2013-01-28 05:20:00
7:50 AM,50.0,46.4,87,30.01,6.2,East,8.1,-,N/A,,Mostly Cloudy,100,2013-01-28 05:50:00
8:00 AM,49,47,89,30.01,12,East,8.1,,,,Mostly Cloudy,100,2013-01-28 06:00:00
8:20 AM,50.0,46.4,87,30.01,6.2,East,8.1,-,N/A,,Mostly Cloudy,90,2013-01-28 06:20:00
8:50 AM,50.0,46.4,87,30.01,6.2,East,8.1,-,N/A,,Mostly Cloudy,90,2013-01-28 06:50:00
9:20 AM,50.0,48.2,94,30.01,6.2,ENE,4.6,-,N/A,,Mostly Cloudy,70,2013-01-28 07:20:00
9:50 AM,50.0,48.2,94,30.01,6.2,NNE,4.6,-,N/A,,Mostly Cloudy,30,2013-01-28 07:50:00
10:20 AM,50.0,46.4,87,30.01,6.2,East,4.6,-,N/A,,Mostly Cloudy,80,2013-01-28 08:20:00
10:50 AM,50.0,46.4,87,29.98,6.2,ENE,4.6,-,N/A,,Mostly Cloudy,70,2013-01-28 08:50:00
11:20 AM,50.0,46.4,87,29.98,6.2,Variable,4.6,-,N/A,,Mostly Cloudy,0,2013-01-28 09:20:00
11:50 AM,50.0,46.4,87,29.98,6.2,NE,4.6,-,N/A,,Mostly Cloudy,40,2013-01-28 09:50:00
12:20 PM,50.0,46.4,87,29.98,6.2,NNE,4.6,-,N/A,,Mostly Cloudy,20,2013-01-28 10:20:00
12:50 PM,50.0,46.4,87,29.98,6.2,NNE,4.6,-,N/A,,Mostly Cloudy,20,2013-01-28 10:50:00
1:20 PM,50.0,46.4,87,29.98,6.2,Variable,3.5,-,N/A,,Mostly Cloudy,0,2013-01-28 11:20:00
1:50 PM,50.0,46.4,87,29.95,6.2,North,3.5,-,N/A,,Mostly Cloudy,10,2013-01-28 11:50:00
2:00 PM,50,47,84,29.97,12,North,3.5,,,,Mostly Cloudy,10,2013-01-28 12:00:00
2:20 PM,50.0,46.4,87,29.95,6.2,Variable,4.6,-,N/A,,Mostly Cloudy,0,2013-01-28 12:20:00
2:50 PM,50.0,46.4,87,29.95,6.2,ENE,5.8,-,N/A,,Mostly Cloudy,60,2013-01-28 12:50:00
3:20 PM,50.0,46.4,87,29.95,6.2,NE,5.8,-,N/A,,Mostly Cloudy,40,2013-01-28 13:20:00
3:50 PM,50.0,46.4,87,29.95,6.2,NE,4.6,-,N/A,,Mostly Cloudy,40,2013-01-28 13:50:00
4:20 PM,50.0,46.4,87,29.95,6.2,ENE,3.5,-,N/A,,Mostly Cloudy,70,2013-01-28 14:20:00
4:50 PM,48.2,44.6,87,29.95,6.2,ENE,4.6,-,N/A,,Mostly Cloudy,70,2013-01-28 14:50:00
5:20 PM,48.2,44.6,87,29.95,6.2,ENE,5.8,-,N/A,,Mostly Cloudy,70,2013-01-28 15:20:00
5:50 PM,48.2,44.6,87,29.92,6.2,East,5.8,-,N/A,,Mostly Cloudy,100,2013-01-28 15:50:00
6:20 PM,48.2,44.6,87,29.92,6.2,East,6.9,-,N/A,,Mostly Cloudy,100,2013-01-28 16:20:00
6:50 PM,48.2,44.6,87,29.92,6.2,East,5.8,-,N/A,,Mostly Cloudy,90,2013-01-28 16:50:00
7:20 PM,48.2,44.6,87,29.92,6.2,East,4.6,-,N/A,,Mostly Cloudy,90,2013-01-28 17:20:00
7:50 PM,48.2,44.6,87,29.92,6.2,East,3.5,-,N/A,,Mostly Cloudy,80,2013-01-28 17:50:00
8:00 PM,48,45,85,29.94,9,East,3.5,,,,Mostly Cloudy,80,2013-01-28 18:00:00
8:20 PM,48.2,44.6,87,29.92,6.2,East,3.5,-,N/A,,Mostly Cloudy,80,2013-01-28 18:20:00
8:50 PM,48.2,44.6,87,29.92,6.2,Variable,1.2,-,N/A,,Mostly Cloudy,0,2013-01-28 18:50:00
9:20 PM,48.2,44.6,87,29.92,6.2,NNE,3.5,-,N/A,,Mostly Cloudy,20,2013-01-28 19:20:00
9:50 PM,48.2,44.6,87,29.89,6.2,Calm,Calm,-,N/A,,Mostly Cloudy,0,2013-01-28 19:50:00
10:20 PM,48.2,44.6,87,29.89,6.2,Variable,2.3,-,N/A,,Mostly Cloudy,0,2013-01-28 20:20:00
10:50 PM,48.2,44.6,87,29.89,6.2,NNW,4.6,-,N/A,,Mostly Cloudy,340,2013-01-28 20:50:00
11:20 PM,48.2,44.6,87,29.89,6.2,NW,4.6,-,N/A,,Mostly Cloudy,320,2013-01-28 21:20:00
11:50 PM,48.2,44.6,87,29.89,6.2,NNW,3.5,-,N/A,,Mostly Cloudy,340,2013-01-28 21:50:00